Flag for China Weather past 2 weeks in Nanning, Guangxi, China

Now
79 °F

Passing clouds.


Feels Like: 81 °F
Forecast: 71 / 86 °F
Wind: 3 mph from Southeast

Location: Nanning Airport

Current Time: Oct 24, 2014 at 6:51:03 PM

Latest Report: Oct 24, 2014 at 6:00 PM


Visibility: N/A

Pressure: 29.95 "Hg

Humidity: 70%

Dew point: 68 °F

Location of NanningLocation

Historic Weather in Nanning — Graph

°F

Nanning temperature yesterday

Maximum temperature yesterday: 81 °F (at 1:00 PM)
Minimum temperature yesterday: 68 °F (at 2:00 AM)
Average temperature yesterday: 74 °F

Past Weeks' High & Low Weather Summary

 TemperatureHumidityPressure
High88 °F (Oct 21, 3:00 PM)100% (Oct 10, 7:00 AM)30.18 "Hg (Oct 10, 7:00 AM)
Low63 °F (Oct 14, 6:00 AM)35% (Oct 10, 3:00 PM)29.83 "Hg (Oct 9, 5:00 PM)
Average75 °F74%30.01 "Hg
* Reported Oct 9 5:00 PM — Oct 24 5:00 PM, Nanning, Weather by CustomWeather, © 2014

Note: Actual official high and low records may vary slightly from our data, if they occured in-between our weather recording intervals... More about our weather records

Advertising

Nanning weather history for previous 24 hours

 ConditionsComfort  
Time TempWeatherWind HumidityBarometerVisibility
5:00 PM
Oct 24
82 °FSunny.1 mph58%29.95 "Hg10 mi
4:00 PM82 °FSunny.1 mph58%29.95 "Hg10 mi
3:00 PM82 °FPassing clouds.3 mph58%29.95 "HgN/A
2:00 PM82 °FPassing clouds.3 mph58%29.98 "HgN/A
1:00 PM82 °FScattered clouds.3 mph58%30.01 "Hg5 mi
12:00 PM81 °FPassing clouds.3 mph54%30.04 "Hg5 mi
11:00 AM79 °FPartly sunny.3 mph54%30.07 "Hg4 mi
10:00 AM75 °FPartly sunny.1 mph65%30.07 "Hg4 mi
9:00 AM72 °FPartly sunny.1 mph83%30.04 "Hg4 mi
8:00 AM70 °FFog.1 mph88%30.04 "Hg3 mi
7:00 AM70 °FFog.1 mph88%30.01 "Hg3 mi
6:00 AM70 °FPassing clouds.1 mph94%29.98 "Hg4 mi
5:00 AM70 °FPassing clouds.1 mph88%29.98 "Hg4 mi
4:00 AM70 °FPassing clouds.1 mph83%29.98 "Hg4 mi
3:00 AM70 °FPassing clouds.1 mph83%30.01 "Hg4 mi
2:00 AM72 °FClear.1 mph78%30.01 "Hg4 mi
1:00 AM72 °FClear.1 mph73%30.04 "Hg5 mi
12:00 AM72 °FClear.3 mph73%30.04 "Hg4 mi
11:00 PM
Oct 23
73 °FClear.1 mph65%30.04 "Hg4 mi
10:00 PM73 °FLight rain. Clear.1 mph74%30.04 "Hg4 mi
9:00 PM73 °FClear.1 mph65%30.04 "Hg10 mi
8:00 PM75 °FPassing clouds.6 mph65%30.01 "HgN/A
7:00 PM75 °FClear.1 mph65%29.98 "Hg10 mi
6:00 PM77 °FSunny.1 mph61%29.98 "Hg10 mi
Weather by CustomWeather, © 2014

See weather overviewHow to use our weather pages